Flag for Germany Past Weather in Königs Wusterhausen, Brandenburg, Germany — Yesterday and Last 2 Weeks

Now
59 °F

Clear.


Feels Like: 60 °F
Forecast: 59 / 75 °F
Wind: 3 mph from East

Location: Berlin-Schoenefeld

Current Time: May 31, 2016 at 12:22:03 AM

Latest Report: May 30, 2016 at 11:50 PM


Visibility: 10 mi

Pressure: 29.77 "Hg

Humidity: 100%

Dew Point: 59 °F

Location of Königs WusterhausenLocation

Past Weather in Königs Wusterhausen — Graph

°F

Königs Wusterhausen Temperature Yesterday

Maximum temperature yesterday: 79 °F (at 10:50 AM)
Minimum temperature yesterday: 61 °F (at 9:50 PM)
Average temperature yesterday: 69 °F

High & Low Weather Summary for the Past Weeks

 TemperatureHumidityPressure
High82 °F (May 22, 2:20 PM)100% (May 23, 11:20 PM)30.07 "Hg (May 23, 11:20 PM)
Low41 °F (May 16, 1:50 AM)25% (May 19, 3:50 PM)29.65 "Hg (May 23, 10:20 PM)
Average61 °F69%29.89 "Hg
* Reported May 15 11:20 PM — May 30 11:20 PM, Königs Wusterhausen, Weather by CustomWeather, © 2016

Note: Actual official high and low records may vary slightly from our data, if they occured in-between our weather recording intervals... More about our weather records

Advertising

Königs Wusterhausen Weather History for the Previous 24 Hours

Scroll right to see more
 ConditionsComfort  
Time TempWeatherWind HumidityBarometerVisibility
11:20 PM
Mon, May 30
61 °FClear.6 mph94%29.74 "Hg10 mi
10:50 PM61 °FPassing clouds.3 mph94%29.74 "HgN/A
10:20 PM61 °FClear.2 mph94%29.74 "Hg10 mi
9:50 PM61 °FSunny.6 mph100%29.74 "Hg10 mi
9:20 PM63 °FSunny.3 mph94%29.71 "Hg10 mi
8:50 PM63 °FSunny.2 mph94%29.71 "Hg10 mi
8:20 PM64 °FBroken clouds.7 mph88%29.71 "HgN/A
7:50 PM64 °FThundershowers. Partly sunny.5 mph88%29.74 "HgN/A
7:20 PM64 °FThunderstorms. Broken clouds.3 mph88%29.71 "HgN/A
6:20 PM75 °FThundershowers. Partly sunny.7 mph69%29.68 "HgN/A
5:50 PM75 °FPartly sunny.7 mph69%29.68 "HgN/A
5:20 PM73 °FPartly sunny.8 mph74%29.68 "HgN/A
4:50 PM73 °FPartly sunny.7 mph74%29.68 "HgN/A
4:20 PM73 °FPartly sunny.6 mph74%29.68 "HgN/A
3:50 PM75 °FPartly sunny.7 mph65%29.65 "HgN/A
3:20 PM79 °FPartly sunny.7 mph54%29.68 "HgN/A
2:50 PM75 °FBroken clouds.6 mph69%29.65 "HgN/A
2:20 PM73 °FBroken clouds.7 mph65%29.68 "HgN/A
1:50 PM70 °FThunderstorms. Broken clouds.8 mph73%29.68 "HgN/A
12:50 PM79 °FPartly sunny.9 mph51%29.68 "HgN/A
12:20 PM79 °FPassing clouds.7 mph51%29.68 "HgN/A
11:50 AM77 °FPassing clouds.13 mph57%29.68 "HgN/A
11:20 AM77 °FPassing clouds.15 mph57%29.68 "HgN/A
10:50 AM79 °FPassing clouds.10 mph54%29.65 "HgN/A
10:20 AM77 °FPassing clouds.10 mph57%29.65 "HgN/A
9:50 AM75 °FPassing clouds.12 mph61%29.65 "HgN/A
9:20 AM75 °FPassing clouds.12 mph61%29.65 "HgN/A
8:50 AM73 °FPassing clouds.10 mph65%29.65 "HgN/A
8:20 AM72 °FSunny.14 mph69%29.65 "Hg10 mi
7:50 AM68 °FSunny.15 mph78%29.65 "Hg10 mi
7:20 AM68 °FSunny.14 mph78%29.65 "Hg10 mi
6:50 AM66 °FSunny.10 mph78%29.65 "Hg10 mi
6:20 AM64 °FPassing clouds.10 mph83%29.65 "HgN/A
5:50 AM64 °FClear.10 mph83%29.65 "Hg10 mi
5:20 AM64 °FClear.9 mph83%29.65 "Hg10 mi
4:50 AM64 °FClear.10 mph83%29.65 "Hg10 mi
4:20 AM64 °FClear.9 mph83%29.65 "Hg10 mi
3:50 AM64 °FClear.9 mph83%29.65 "Hg10 mi
3:20 AM66 °FClear.10 mph78%29.65 "Hg10 mi
2:50 AM66 °FClear.9 mph78%29.68 "Hg10 mi
2:20 AM66 °FClear.8 mph78%29.68 "Hg10 mi
1:50 AM66 °FClear.9 mph78%29.68 "Hg10 mi
1:20 AM66 °FClear.8 mph78%29.71 "Hg10 mi
12:50 AM66 °FClear.9 mph78%29.71 "Hg10 mi
12:20 AM68 °FClear.9 mph73%29.71 "Hg10 mi
Weather by CustomWeather, © 2016

See weather overviewHow to use our weather pages